Location: Br�ttisellen
(47.4227°N, 8.6287°E)
Time: 07:39:59
(UTC+00:00)

Daily predictions for brighter satellites

Satellite Brightness Start Highest point End
(mag) Time Altitude Azimuth Time Altitude Azimuth Time Altitude Azimuth
Cosmos 1943 Rocket 3.9 18:28:13 10° NW 18:33:13 35° WSW 18:38:15 10° S
Ariane Rocket 3.0 18:28:26 10° SSE 18:33:27 67° ENE 18:38:29 10° N
STARLINK-1222 3.5 18:31:57 10° WNW 18:35:01 49° NNE 18:38:05 10° E
STARLINK-1211 3.4 18:32:25 10° WNW 18:35:29 49° NNE 18:38:33 10° E
STARLINK-1214 3.4 18:32:51 10° WNW 18:35:56 49° NNE 18:39:00 10° E
STARLINK-1245 3.4 18:33:20 10° WNW 18:36:23 49° NNE 18:39:26 10° E
STARLINK-1238 3.4 18:33:45 10° WNW 18:36:50 50° NNE 18:39:55 10° E
ERBS 4.0 18:34:54 10° NW 18:37:43 24° NNE 18:40:31 10° ENE
STARLINK-1205 3.4 18:34:41 10° WNW 18:37:45 50° NNE 18:40:48 10° E
STARLINK-1204 3.4 18:35:09 10° WNW 18:38:13 50° NNE 18:41:16 10° E
Meteor 1-16 Rocket 4.2 18:32:58 10° S 18:38:20 66° E 18:43:55 10° NNE
APEX 4.3 18:31:54 10° NNW 18:38:28 71° ENE 18:43:46 10° SE
Cosmos 614 Rocket 4.1 18:33:34 10° S 18:38:38 53° ESE 18:43:42 10° NNE
YAOGAN 1 4.4 18:34:43 10° SSW 18:38:41 35° W 18:42:42 10° NNW
CZ-2C R/B 3.0 18:34:18 10° SSE 18:39:02 58° ENE 18:43:43 10° N
STARLINK-1239 4.5 18:37:03 10° WNW 18:41:01 43° NNE 18:45:00 10° E
MONITOR-E 4.2 18:39:54 10° SSE 18:42:25 42° ENE 18:44:57 10° N
STARLINK-29 3.5 18:39:55 10° SSW 18:42:55 37° SE 18:45:56 10° ENE
Cosmos 1190 Rocket 4.4 18:39:44 10° S 18:44:42 42° ESE 18:49:41 10° NE
SJ-6B 3.2 18:41:35 10° SE 18:45:34 49° ENE 18:49:34 10° N
Aureole 1 Rocket 4.1 18:38:34 10° S 18:45:47 58° ESE 18:51:26 10° NNE
IRIDIUM 104 4.4 18:40:34 10° N 18:45:50 89° E 18:51:03 10° S
STARLINK-1240 4.4 18:42:02 10° WNW 18:46:02 44° NNE 18:50:02 10° E
Cosmos 1300 4.3 18:44:37 10° SE 18:47:09 17° E 18:49:42 10° NE
BREEZE-M DEB (TANK) 3.8 18:40:12 10° WNW 18:47:54 89° N 18:50:46 11° ESE
STARLINK-60 3.0 18:47:10 10° WSW 18:50:27 87° SSE 18:53:45 10° ENE
Cosmos 2369 Rocket 3.9 18:45:24 10° NW 18:50:30 35° WSW 18:55:32 10° S
STARLINK-1216 4.4 18:47:01 10° WNW 18:51:02 45° NNE 18:55:02 10° E
ARGOS Delta rocket 4.5 18:46:39 10° S 18:52:00 73° W 18:57:31 10° NNW
CZ-2C R/B 4.3 18:50:34 10° NNE 18:54:53 35° E 18:59:06 10° SSE
STARLINK-1237 4.3 18:51:58 10° WNW 18:56:01 47° NNE 18:59:54 11° E
Cosmos 2058 Rocket 3.4 18:55:07 10° SSE 18:59:25 46° E 19:03:45 10° NNE
STARLINK-1202 4.2 18:56:59 10° WNW 19:01:02 49° NNE 19:04:42 12° E
Cosmos 1726 Rocket 3.5 18:57:39 10° S 19:02:03 75° E 19:06:31 10° NNE
SL-08 RB Rocket 3.8 18:58:03 10° SSE 19:02:34 65° ENE 19:07:09 10° N
Cosmos 1461 3.2 18:58:45 10° NW 19:03:18 86° SW 19:07:58 10° SSE
STARLINK-1228 2.7 19:00:23 10° WNW 19:03:21 80° SSW 19:05:31 16° SE
Cosmos 921 Rocket 3.0 19:01:34 10° NNW 19:05:42 58° ENE 19:09:43 11° SSE
Cosmos 1703 3.5 19:02:07 10° NNW 19:06:06 74° W 19:10:03 10° S
Meteor 2-17 Rocket 4.4 19:00:33 10° N 19:06:45 79° E 19:12:54 10° SSE
Cosmos 2341 Rocket 4.4 19:00:37 10° N 19:06:47 48° ENE 19:12:55 10° SSE
Cosmos 1726 3.4 19:03:13 10° SSW 19:06:48 45° WNW 19:10:24 10° N
SL-4 R/B 2.0 19:03:37 10° W 19:06:59 60° NNW 19:10:24 10° ENE
Cosmos 2184 Rocket 4.4 19:02:19 10° NNW 19:08:34 69° W 19:14:43 10° S
Cosmos 1825 Rocket 4.4 19:05:08 10° NNW 19:09:24 54° W 19:13:38 10° S
CZ-4C R/B 4.2 19:04:02 10° NNW 19:09:26 26° NNE 19:15:35 10° ENE
Cosmos 407 Rocket 3.4 19:05:06 10° SSW 19:10:14 81° ESE 19:15:23 10° NNE
Cosmos 1908 3.3 19:06:38 10° S 19:10:29 85° W 19:14:24 10° N
Cosmos 1340 Rocket 2.8 19:06:58 10° S 19:10:57 62° E 19:14:56 10° NNE
STARLINK-1246 4.1 19:06:56 10° WNW 19:11:01 53° NNE 19:14:15 15° E
FREGAT/IRIS 3.2 19:08:44 10° S 19:11:24 49° W 19:14:04 10° NNW
RESURS DK-1 4.5 19:09:39 10° N 19:12:03 15° NE 19:14:21 10° ENE
STARLINK-1201 3.0 19:09:08 10° WNW 19:12:25 80° NNE 19:14:33 20° ESE
Cosmos 1328 4.2 19:08:49 10° NNW 19:12:48 65° W 19:16:45 10° S
Cosmos 2228 3.3 19:08:41 10° SSW 19:12:59 72° WNW 19:17:21 10° N
Cosmos 676 Rocket 4.3 19:08:53 10° S 19:13:54 46° ESE 19:18:54 10° NNE
STARLINK-1224 4.0 19:11:57 10° WNW 19:16:02 55° NNE 19:19:04 17° E
Cosmos 1943 4.4 19:11:59 10° SW 19:17:25 46° NW 19:22:55 10° NNE
STARLINK-1203 4.0 19:14:05 10° WNW 19:18:15 59° NNE 19:21:13 18° E
MetOp-A 4.1 19:14:10 10° SSE 19:19:29 70° ENE 19:24:50 10° N
Cosmos 2058 4.2 19:16:14 10° NNE 19:19:36 24° ENE 19:21:10 19° ESE
Resurs 01 Rocket 2.1 19:17:44 16° SE 19:20:53 43° ENE 19:25:05 10° N
STARLINK-1225 4.0 19:16:56 10° WNW 19:21:03 57° NNE 19:23:51 19° E
MOS 1 Rocket 3.9 19:17:25 10° NNE 19:22:41 48° E 19:27:56 10° S
STARLINK-52 2.8 19:20:01 10° SW 19:23:13 73° SSE 19:25:56 14° ENE
CZ-2C R/B 2.8 19:19:02 10° NNE 19:23:59 44° E 19:28:58 10° S
Nadezhda 1 Rocket 4.2 19:18:53 10° S 19:25:17 82° W 19:31:40 10° N
BREEZE M DEB (TANK) 3.3 19:23:00 10° SSW 19:25:58 37° SE 19:33:11 10° ENE
STARLINK-1230 3.9 19:21:54 10° WNW 19:26:01 60° NNE 19:28:37 21° E
Cosmos 962 Rocket 4.4 19:21:34 10° N 19:27:44 72° E 19:33:49 10° SSE
SPOT 3 Rocket 3.5 19:23:22 10° SSE 19:28:34 87° ENE 19:33:48 10° NNW
Cosmos 1023 Rocket 4.4 19:24:01 10° SSW 19:29:11 88° ESE 19:34:21 10° NNE
Cosmos 1697 Rocket 4.2 19:25:12 10° N 19:29:36 22° NE 19:32:44 15° E
SL-24 R/B - RUBIN 2 4.5 19:24:12 10° SW 19:29:52 79° NW 19:36:16 10° NE
ARGOS 3.8 19:24:49 10° S 19:30:06 57° W 19:35:25 10° NNW
SL-8 Rocket 4.2 19:24:10 10° N 19:30:20 52° ENE 19:35:13 16° SSE
STARLINK-1243 3.8 19:26:52 10° WNW 19:31:00 63° NNE 19:33:24 24° E
FALCON 9 DEB 3.0 19:28:03 10° WSW 19:31:33 84° SSE 19:34:33 14° ENE
Cosmos 2154 Rocket 4.3 19:25:16 10° NNW 19:31:37 71° W 19:37:52 10° S
Iridium 2 4.3 19:33:27 26° SE 19:34:47 34° E 19:38:17 10° NNE
NOSS 3-4 (A) 4.5 19:28:02 10° NW 19:34:52 54° WSW 19:42:21 10° SSE
NOSS 3-4 (C) 4.5 19:28:08 10° NW 19:34:59 55° WSW 19:42:28 10° SSE
Cosmos 1954 Rocket 3.9 19:30:16 10° S 19:35:28 67° ESE 19:40:39 10° NNE
Cosmos 2181 Rocket 4.2 19:29:37 10° SSE 19:35:35 50° E 19:41:30 10° NNE
USA 186 3.9 19:32:53 10° SSW 19:35:43 27° W 19:38:27 10° NW
STARLINK-1236 3.8 19:31:51 10° WNW 19:36:00 67° NNE 19:38:11 26° E
MINOTAUR IV R/B 4.5 19:32:18 10° SSW 19:36:45 72° ESE 19:41:14 10° NNE
STARLINK-67 4.4 19:36:40 10° W 19:38:41 20° SW 19:39:24 18° SSW
Cosmos 2366 rocket 4.2 19:38:27 10° N 19:44:28 52° ENE 19:48:11 23° SE
Cosmos 1076 Rocket 3.9 19:40:44 10° N 19:44:50 43° ENE 19:46:20 31° ESE
STARLINK-1269 3.6 19:41:48 10° WNW 19:45:57 74° NNE 19:47:44 33° ESE
Cosmos 1656 4.3 19:43:23 10° NNW 19:48:49 43° NE 19:51:23 27° ESE
Cosmos 1763 Rocket 3.9 19:44:26 10° NNW 19:49:25 44° ENE 19:51:29 29° ESE
STARLINK-1200 3.6 19:46:47 10° WNW 19:50:56 79° NNE 19:52:31 37° ESE
SPOT 1/Viking Rocket 4.4 19:50:06 26° ESE 19:51:57 34° ENE 19:56:38 10° N
Cosmos 1455 4.0 19:56:32 18° ENE 19:56:32 18° ENE 19:58:11 10° NE
STARLINK-1234 4.1 19:52:27 10° WNW 19:55:17 31° SW 19:55:47 29° SSW
STARLINK-1209 4.2 19:52:57 10° WNW 19:55:44 29° SW 19:56:15 28° SSW
STARLINK-1192 3.5 19:51:45 10° WNW 19:55:55 83° NNE 19:57:18 41° ESE
STARLINK-1233 3.6 19:53:13 10° WNW 19:56:13 41° SW 19:56:38 39° SSW
STARLINK-1212 3.6 19:53:42 10° WNW 19:56:41 41° SW 19:57:04 39° SSW
STARLINK-1105 3.6 19:54:08 10° WNW 19:57:07 41° SW 19:57:31 38° SSW
STARLINK-1206 3.6 19:54:37 10° WNW 19:57:35 40° SW 19:57:55 38° SSW
STARLINK-1247 3.6 19:55:05 10° WNW 19:58:02 40° SW 19:58:22 38° SSW
Iridium 4 Rocket 3.3 19:54:18 10° N 19:58:20 45° E 19:59:05 40° ESE
STARLINK-1227 3.6 19:55:29 10° WNW 19:58:28 40° SW 19:58:47 38° SSW
STARLINK-1218 3.7 19:55:59 10° WNW 19:58:56 39° SW 19:59:13 38° SSW
STARLINK-1226 3.7 19:56:25 10° WNW 19:59:23 39° SW 19:59:40 38° SSW
Cosmos 1980 Rocket 3.8 19:55:30 10° N 19:59:45 21° NE 20:02:02 17° ENE
USA 234 3.7 19:53:49 10° ENE 19:59:46 36° SE 20:05:41 10° SSW
STARLINK-1254 3.7 19:56:51 10° WNW 19:59:48 39° SW 20:00:06 37° SSW
STARLINK-1215 3.7 19:57:21 10° WNW 20:00:16 38° SW 20:00:32 37° SSW
STARLINK-1231 3.7 19:57:48 10° WNW 20:00:44 38° SW 20:00:58 37° SSW
Cosmos 1174 4.1 19:56:37 10° NNW 20:00:46 76° NE 20:02:39 38° SE
STARLINK-1244 3.5 19:56:50 10° WNW 20:00:59 88° NNE 20:02:10 46° ESE
STARLINK-1232 3.8 19:58:43 10° WNW 20:01:38 37° SW 20:01:50 36° SSW
Cosmos 1892 2.9 19:57:57 10° N 20:01:46 49° ENE 20:02:13 46° ESE
STARLINK-1217 3.8 19:59:10 10° WNW 20:02:05 37° SW 20:02:16 36° SSW
Abrixas rocket 3.2 19:59:37 10° W 20:02:07 31° SW 20:02:07 31° SW
STARLINK-1208 3.8 19:59:35 10° WNW 20:02:31 37° SW 20:02:43 36° SSW
STARLINK-1229 3.8 20:00:04 10° WNW 20:02:58 36° SW 20:03:07 36° SSW
STARLINK-1271 3.8 20:00:31 10° WNW 20:03:25 36° SW 20:03:34 36° SSW
H-2A R/B 4.2 19:59:44 10° SSW 20:03:52 24° W 20:07:58 10° NW
STARLINK-1270 3.8 20:00:59 10° WNW 20:03:53 35° SW 20:04:00 35° SSW
STARLINK-1154 3.9 20:01:26 10° WNW 20:04:20 35° SW 20:04:26 35° SSW
STARLINK-1197 3.9 20:02:20 10° WNW 20:05:13 34° SW 20:05:18 34° SW
ATLAS 5 CENTAUR R/B 2.7 20:01:15 10° WSW 20:05:20 45° NW 20:09:58 10° NNE
STARLINK-1189 3.9 20:02:46 10° WNW 20:05:40 34° SW 20:05:43 34° SW
STARLINK-1138 3.5 20:01:44 10° WNW 20:05:54 87° SSW 20:06:52 51° ESE
STARLINK-1198 3.9 20:03:15 10° WNW 20:06:07 34° SW 20:06:10 34° SW
Cosmos 1825 3.7 20:03:11 10° NNE 20:05:39 22° ENE 20:05:39 22° ENE
STARLINK-1188 4.0 20:03:41 10° WNW 20:06:33 34° SW 20:06:35 34° SW
ATLAS 2AS CENTAUR R/B 4.2 20:00:10 10° NW 20:06:38 33° WSW 20:12:38 10° S
STARLINK-1235 4.4 20:04:28 10° W 20:07:11 27° SW 20:07:18 27° SW
STARLINK-1187 4.2 20:04:49 10° WNW 20:07:38 30° SW 20:07:42 30° SW
Cosmos-2242 4.1 20:08:42 28° ENE 20:08:42 28° ENE 20:11:43 10° NNE
STARLINK-1199 4.0 20:05:39 10° WNW 20:08:31 33° SW 20:08:31 33° SW
STARLINK-1191 4.1 20:06:06 10° WNW 20:08:56 32° SW 20:08:56 32° SW
STARLINK-1210 4.1 20:06:33 10° WNW 20:09:23 32° SW 20:09:23 32° SW
STARLINK-1221 4.1 20:07:00 10° WNW 20:09:49 32° SW 20:09:49 32° SW
COSMOS 2455 3.6 20:04:11 10° NW 20:09:56 47° WSW 20:13:57 19° S
STARLINK-1219 4.1 20:07:28 10° WNW 20:10:15 32° SW 20:10:15 32° SW
STARLINK-1222 4.1 20:07:55 10° WNW 20:10:40 31° SW 20:10:40 31° SW
STARLINK-1143 3.5 20:06:42 10° WNW 20:10:51 82° SSW 20:11:39 57° SE
STARLINK-1211 4.2 20:08:23 10° WNW 20:11:07 31° SW 20:11:07 31° SW
STARLINK-1214 4.2 20:08:50 10° WNW 20:11:33 31° SW 20:11:33 31° SW
STARLINK-1245 4.2 20:09:19 10° WNW 20:11:58 30° SW 20:11:58 30° SW
STARLINK-1238 4.2 20:09:43 10° WNW 20:12:25 30° SW 20:12:25 30° SW
Cosmos 1356 Rocket 4.3 20:13:46 34° ENE 20:13:46 34° ENE 20:16:59 10° NNE
STARLINK-1205 4.3 20:10:41 10° WNW 20:13:16 29° SW 20:13:16 29° SW
STARLINK-1204 4.3 20:11:08 10° WNW 20:13:42 29° SW 20:13:42 29° SW
ERBS 2.2 20:10:59 10° NW 20:14:20 80° SW 20:14:20 80° SW
STARLINK-1241 3.5 20:11:43 10° WNW 20:15:52 77° SSW 20:16:28 62° SSE
STARLINK-29 4.0 20:15:57 10° W 20:19:03 45° NNW 20:19:45 38° NNE
IGS 5A 3.5 20:20:27 57° E 20:20:44 58° ENE 20:24:49 10° N
STARLINK-1239 3.5 20:16:41 10° WNW 20:20:50 72° SSW 20:21:14 65° SSE
SAR-Lupe-2 3.4 20:17:23 10° NNE 20:20:59 88° WNW 20:21:15 76° SSW
ATLAS CENTAUR R/B 2.4 20:18:34 10° NNW 20:22:01 29° NE 20:22:10 29° NE
Cosmos 1300 4.1 20:18:57 10° SW 20:22:31 38° WNW 20:26:07 10° N
Spot 2 Rocket 3.4 20:22:15 42° SSE 20:24:04 89° ENE 20:29:12 10° NNW
Cosmos 1821 Rocket 4.4 20:19:00 10° N 20:25:07 46° ENE 20:26:40 39° ESE
USA 32 4.1 20:20:23 10° N 20:25:33 55° E 20:26:23 49° ESE
STARLINK-1240 3.6 20:21:40 10° WNW 20:25:48 67° SSW 20:26:01 65° S
Cosmos 1850 Rocket 3.8 20:24:22 25° S 20:27:24 76° ESE 20:32:36 10° NNE
Cosmos 841 Rocket 3.7 20:23:28 10° NNW 20:28:39 53° ENE 20:29:32 47° E
Terra 2.7 20:29:53 33° ENE 20:29:57 33° ENE 20:34:12 10° N
STARLINK-1216 3.7 20:26:39 10° WNW 20:30:45 62° SW 20:30:47 62° SSW
Cosmos 2278 4.4 20:26:03 10° NNW 20:31:19 38° NE 20:32:29 34° E
SPOT 5 3.2 20:31:40 41° ENE 20:31:40 41° ENE 20:35:33 10° N
Cosmos 2082 Rocket 3.9 20:34:09 18° ENE 20:34:09 18° ENE 20:36:06 10° NE
Meteor 2-10 Rocket 3.6 20:33:52 54° ESE 20:34:17 56° E 20:39:37 10° NNE
SL-08 R/B 4.4 20:28:20 10° N 20:34:31 82° E 20:36:45 43° SSE
MetOp-B 4.3 20:32:14 34° S 20:34:32 67° WSW 20:39:54 10° NNW
STARLINK-1237 3.9 20:31:37 10° WNW 20:35:33 57° SW 20:35:33 57° SW
Cosmos 1833 Rocket 3.3 20:39:02 39° E 20:39:02 39° E 20:43:17 10° NE
CARTOSAT-1 3.9 20:39:31 52° NE 20:39:31 52° NE 20:43:26 10° N
STARLINK-1202 4.1 20:36:38 10° WNW 20:40:21 52° SW 20:40:21 52° SW
Cosmos 468 Rocket 4.3 20:36:04 10° NNW 20:41:09 60° WSW 20:42:31 44° SSW
SL-4 R/B 2.9 20:43:38 10° WNW 20:46:33 38° NNW 20:46:33 38° NNW
ERS-1 Rocket 2.8 20:47:01 70° ESE 20:47:26 75° ENE 20:52:29 10° N
Cosmos 1408 3.3 20:44:04 10° N 20:46:55 52° NNW 20:46:55 52° NNW
STARLINK-1246 4.5 20:46:37 10° WNW 20:49:54 41° WSW 20:49:54 41° WSW
RESURS DK-1 2.5 20:46:32 10° NNW 20:50:15 70° NW 20:50:15 70° NW
Cosmos 1766 Rocket 3.8 20:48:53 10° N 20:52:50 63° NNE 20:52:50 63° NNE
BREEZE M DEB (TANK) 3.2 20:48:02 10° W 20:53:25 61° WNW 20:53:25 61° WNW
Cosmos 1570 Rocket 3.9 20:48:31 10° NNW 20:53:54 83° WSW 20:54:32 70° S
Okean 3 Rocket 3.6 20:50:28 10° N 20:54:34 76° N 20:54:34 76° N
Cosmos 2058 4.3 20:52:52 10° NNW 20:56:34 32° W 20:57:24 29° WSW
Resurs 01 Rocket 3.7 20:55:17 15° SW 20:57:34 22° W 21:01:01 10° NW
COSMOS 2406 3.1 20:54:52 30° SSW 20:57:47 85° WNW 21:03:32 10° NNE
CZ-4C R/B 3.1 20:52:26 10° NW 20:59:22 61° NE 21:01:49 43° E
CZ-2C R/B 4.5 20:59:44 10° N 21:04:06 28° WNW 21:08:29 10° WSW
Cosmos 2151 3.6 21:03:57 10° NNW 21:07:34 54° WNW 21:07:34 54° WNW
Cosmos 1697 Rocket 2.6 21:08:33 10° NNW 21:14:16 81° WSW 21:14:29 79° SSW
Cosmos 2369 3.6 21:08:42 10° NNW 21:14:22 82° WSW 21:14:33 80° SSW
Cosmos 1455 4.1 21:31:25 28° NW 21:31:25 28° NW 21:34:08 10° N
Cosmos 540 Rocket 4.1 21:29:46 10° NNW 21:34:20 49° W 21:34:20 49° W
SL-16 R/B 3.3 21:31:03 10° NNW 21:36:08 32° NE 21:36:11 32° NE
Cosmos 2360 Rocket 4.1 21:32:33 10° N 21:36:23 18° NE 21:37:32 17° NE
Cosmos 1825 4.4 21:38:29 10° NNW 21:40:28 23° WNW 21:40:28 23° WNW
Nadezhda 3 Rocket 4.4 21:41:26 48° WSW 21:42:50 58° WNW 21:49:02 10° N
Cosmos 2322 Rocket 3.4 21:38:06 10° NNW 21:43:03 31° NE 21:43:03 31° NE
USA 234 3.2 21:36:36 10° NE 21:43:10 80° NNW 21:49:43 10° WSW
Cosmos 2221 4.4 21:46:37 25° NNE 21:46:37 25° NNE 21:48:29 10° NNE
Cosmos 1980 Rocket 2.3 21:38:49 10° NNW 21:43:48 70° NW 21:43:48 70° NW
Cosmos 1535 Rocket 4.4 21:40:52 10° N 21:46:59 78° W 21:46:59 78° W
ASTEX 1 4.1 21:50:00 52° NNW 21:50:00 52° NNW 21:53:49 10° N
Meteor 2-3 Rocket 4.1 21:50:10 10° NNW 21:55:21 58° WNW 21:55:21 58° WNW
ATLAS CENTAUR R/B 3.9 21:57:29 10° NW 21:58:21 15° WNW 21:58:21 15° WNW
Mayak 0.8 22:03:10 10° N 22:04:58 25° N 22:04:58 25° N
Terra 3.4 22:08:45 29° WNW 22:08:45 29° WNW 22:11:58 10° NNW
Cosmos 1934 Rocket 4.5 22:05:33 10° NNW 22:11:27 51° W 22:11:27 51° W
Cosmos 2082 Rocket 2.8 22:15:56 54° NNW 22:15:56 54° NNW 22:20:53 10° NNE
Cosmos 1833 Rocket 4.0 22:20:37 32° W 22:22:00 36° NW 22:27:12 10° NNE
Cosmos 1605 Rocket 4.5 22:24:02 10° NNW 22:29:21 53° WNW 22:29:21 53° WNW
Cosmos 2219 Rocket 4.2 22:29:40 10° N 22:33:31 18° NE 22:34:42 17° ENE
Cosmos 2344 4.4 22:26:38 10° NW 22:36:18 71° WSW 22:38:35 60° S
CZ-4C R/B 3.7 22:41:09 10° NW 22:46:59 41° W 22:46:59 41° W
COSMOS 2428 4.4 22:58:30 10° N 23:03:14 26° NE 23:03:37 26° NE
SL-16 R/B 3.7 23:15:01 10° NW 23:18:02 30° NW 23:18:02 30° NW
Cosmos 2360 Rocket 3.3 23:15:40 10° NNW 23:19:17 41° NNW 23:19:17 41° NNW
USA 234 4.2 23:19:40 10° NE 23:25:45 43° NNW 23:31:51 10° W
Cosmos 2322 Rocket 3.7 23:21:56 10° NW 23:24:52 30° NW 23:24:52 30° NW
MOS 1-B Rocket 4.4 23:34:48 10° NNE 23:40:21 68° NNW 23:40:21 68° NNW
Cosmos 2333 Rocket 3.2 23:38:09 10° NNW 23:42:25 43° NNE 23:42:25 43° NNE
Cosmos 2237 Rocket 4.2 23:39:57 10° N 23:44:24 23° NE 23:46:25 19° ENE
Cosmos 2233 Rocket 4.5 23:42:54 10° N 23:47:50 57° N 23:47:50 57° N
SL-16 R/B 3.9 23:48:42 28° E 23:49:54 30° ENE 23:55:12 10° N
